Dewpoint
60 55 51 46 49 39 30 33 8 17 16 8 16 14 5 18 31 16 13 22 28 56 59 60 58 56 53 53 56 60 62 55 54 48 49 65 68 69 68 70 70 70 70 70 70 70 71 72 72 72 71 71 70 70 70 70 70 71 72 72 72 72 72 72 72 73 72 72 72 72 72 72 72 72 72 72 72 72 72 72 71 71 71 71 71 70 71 71 70 70 71 71 70 70 70 70 70
56 51 47 50 40 32 20 32 23 18 19 13 10 18 15 18 18 20 31 31 29 57 60 61 61 62 62 61 61 58 60 63 62 63 66 67 68 69 69 70 70 69 70 70 70 70 70 70 71 71 71 71 70 70 69 70 70 71 72 72 72 72 72 72 73 72 72 72 72 72 72 73 73 72 72 72 72 72 72 72 72 72 71 71 71 71 71 70 71 71 70 71 70 70 70 69 69
55 47 34 40 36 34 31 26 8 23 5 4 4 13 22 11 30 37 39 38 52 59 59 58 59 58 58 58 54 58 58 64 64 65 66 68 66 68 70 70 70 70 70 71 70 69 70 71 72 72 71 70 70 69 70 70 70 71 71 72 72 72 72 72 72 73 73 72 72 73 72 72 72 72 72 72 72 72 72 72 72 72 71 71 71 71 70 70 70 70 70 70 70 69 69 68 67
48 50 34 34 28 32 25 23 16 11 3 4 6 10 16 28 42 44 45 48 57 58 56 57 56 60 58 53 59 61 62 62 65 64 65 66 65 69 70 70 71 70 70 70 70 69 70 72 72 71 72 70 70 69 70 71 70 71 71 72 72 72 72 72 73 72 72 72 72 72 72 72 72 72 72 72 72 72 71 71 71 71 71 71 71 70 69 69 69 69 69 69 69 69 68 67 67
38 41 40 33 28 26 24 24 24 14 2 15 2 5 19 35 49 51 51 51 57 55 57 58 57 61 61 59 61 57 61 64 65 66 65 67 69 70 70 71 70 70 69 70 70 69 70 71 71 71 70 71 70 70 70 70 71 71 71 72 72 72 72 72 72 72 72 72 72 72 72 72 72 72 72 72 71 71 70 70 70 69 69 69 69 69 68 68 67 68 69 68 68 67 67 68 68
31 36 37 32 24 31 23 17 21 15 6 14 2 5 15 25 39 42 55 58 58 56 57 58 54 56 59 62 63 60 63 60 64 66 66 68 69 70 70 70 70 69 70 71 70 69 70 72 72 71 71 70 70 70 70 70 71 71 71 72 72 72 72 72 72 72 72 72 72 72 72 72 72 71 71 71 71 71 70 70 70 70 69 69 68 68 68 68 67 67 68 68 67 67 67 68 69
22 29 31 23 26 26 20 15 8 12 13 14 9 12 16 17 16 19 20 39 59 59 61 59 60 60 58 61 62 65 66 65 65 66 68 69 70 70 70 70 69 70 70 70 69 70 69 72 72 72 71 71 70 71 71 70 70 71 71 71 72 72 72 72 72 72 72 72 72 72 72 72 71 71 71 71 71 70 70 70 70 69 68 69 69 68 68 68 68 68 67 67 67 67 67 69 69
38 27 27 20 20 18 17 21 15 16 12 20 20 20 20 19 19 19 18 19 40 54 60 60 60 58 59 62 59 65 66 67 67 68 70 70 70 70 70 70 69 69 70 70 70 70 73 72 72 71 71 71 71 71 71 70 70 71 71 71 72 72 72 73 73 72 72 72 72 72 72 71 71 71 71 71 71 71 71 70 69 68 68 68 68 68 68 68 67 68 68 68 67 67 68 69 70
32 29 30 16 14 21 19 14 12 19 18 19 19 23 34 25 21 19 17 25 57 59 58 58 60 54 58 60 61 64 66 68 68 70 70 70 69 70 70 70 69 69 70 69 70 71 70 72 72 71 71 71 71 71 71 71 70 70 71 71 72 72 72 72 72 72 72 72 72 71 71 71 71 70 70 70 70 70 69 70 70 69 69 69 68 68 68 68 67 67 68 68 67 67 68 69 70
30 27 22 23 21 12 15 13 14 10 14 16 16 17 17 19 21 21 17 29 42 59 59 61 59 56 60 59 61 64 66 68 69 69 70 70 70 70 69 69 69 69 69 69 70 70 70 72 72 72 71 71 71 71 71 71 71 71 71 72 72 73 72 72 72 72 72 72 72 72 71 71 70 70 70 69 69 70 69 69 69 69 69 68 69 69 68 68 68 68 67 67 67 68 69 70 70
19 24 26 16 16 12 10 5 13 15 16 17 16 17 19 19 18 18 18 18 48 54 60 59 59 59 59 61 63 66 67 68 68 68 69 70 69 69 69 69 69 70 69 70 70 69 70 71 72 72 72 71 71 71 71 71 71 71 71 72 72 72 72 73 72 72 72 72 72 72 71 71 70 70 69 69 69 69 69 69 69 69 69 69 68 68 68 68 68 68 68 67 67 68 69 69 70
22 24 18 18 16 7 9 10 12 12 15 18 13 15 17 17 18 16 20 29 50 58 59 59 57 60 59 60 62 66 66 67 68 69 69 69 69 69 69 69 69 69 70 71 70 70 69 70 70 72 72 71 71 71 71 71 71 71 71 71 71 72 72 72 72 72 72 72 71 71 71 70 70 70 69 68 68 69 69 69 69 69 69 69 69 68 68 67 68 68 68 68 67 68 69 69 69
21 21 18 17 14 14 17 14 11 21 20 14 14 13 14 16 16 15 20 24 55 58 58 59 61 59 58 59 63 65 65 67 68 68 68 68 68 68 69 69 69 70 70 70 69 69 70 69 69 69 70 71 71 71 71 71 71 71 71 71 71 71 71 72 72 72 71 71 71 71 71 71 70 70 70 70 69 68 68 68 69 69 69 69 69 68 68 67 68 68 68 68 67 67 69 69 69
25 23 19 9 15 15 14 10 14 10 3 12 14 14 18 27 15 14 24 43 57 56 59 61 61 60 61 62 63 64 65 67 68 68 68 68 68 68 69 69 70 70 70 70 69 69 69 69 69 70 69 70 70 70 70 71 71 71 71 71 71 71 71 71 72 72 71 71 71 71 71 71 70 70 70 69 69 68 69 69 69 69 69 69 69 68 68 68 67 68 68 67 67 68 69 69 69
23 23 24 20 15 14 13 7 6 11 4 12 13 13 30 53 28 18 33 41 58 61 61 62 61 55 58 59 60 63 65 66 67 67 67 68 68 68 68 68 69 70 70 69 69 69 68 69 69 70 70 68 69 70 69 70 70 70 70 70 70 70 71 71 71 71 71 71 71 71 71 71 71 70 69 69 69 69 69 69 69 69 69 68 69 69 68 68 67 68 68 67 67 68 69 69 69
28 17 21 17 13 12 10 12 13 11 8 12 12 14 45 57 51 39 37 57 60 62 61 58 62 56 59 59 61 64 66 67 67 67 67 67 67 67 67 69 69 69 69 70 69 69 69 68 69 69 69 69 69 69 69 69 70 70 70 70 70 70 70 71 71 71 71 70 70 71 71 70 70 70 71 69 70 69 69 68 69 69 69 69 69 69 68 68 68 68 68 67 67 68 68 68 69
21 23 18 17 12 11 10 11 11 7 11 12 14 13 25 55 59 60 61 61 60 60 61 63 61 63 59 62 63 65 66 67 67 66 66 66 66 66 67 67 68 68 69 69 69 69 69 69 68 68 68 68 68 69 69 69 69 70 70 70 69 70 70 70 70 70 70 70 70 70 69 69 70 70 69 69 69 69 70 69 68 69 68 69 69 69 68 68 68 68 68 66 66 66 68 68 68
25 22 20 16 12 9 11 11 11 12 11 11 13 13 12 55 59 60 60 61 61 61 61 63 64 64 65 65 66 66 67 66 65 65 64 64 66 65 66 67 66 66 67 68 69 69 69 68 68 68 68 68 68 68 68 69 69 69 69 69 69 69 69 69 70 70 69 70 69 69 69 69 69 69 69 69 68 68 68 69 69 68 69 69 69 69 69 68 68 68 67 66 66 65 66 66 68
26 25 22 13 12 10 16 12 12 11 10 13 14 14 15 53 58 60 58 59 59 59 60 62 62 64 65 66 66 66 66 65 66 66 64 64 63 64 65 65 66 66 66 68 69 69 69 68 69 68 68 68 68 67 68 69 68 68 68 69 69 69 70 69 69 68 68 68 68 67 69 70 69 69 70 69 69 70 69 70 69 69 68 69 69 70 69 69 68 68 67 66 64 64 64 64 65
25 24 18 18 16 12 14 16 12 13 14 14 14 12 17 58 58 59 58 58 58 58 60 61 62 63 64 65 66 65 65 65 66 65 64 64 64 64 64 64 65 66 66 67 67 68 68 68 67 68 68 68 67 67 68 68 68 69 68 69 69 69 69 68 67 68 68 69 68 69 70 69 70 70 70 70 69 68 68 70 70 70 70 70 69 67 68 68 68 67 67 66 64 64 63 61 61
24 24 21 19 18 16 18 15 15 15 15 14 13 33 49 57 58 58 58 57 57 58 60 60 61 63 64 65 65 65 64 64 65 65 65 64 64 65 64 64 64 65 66 68 68 67 67 67 67 67 68 68 67 68 68 68 68 69 68 69 70 69 69 69 69 68 69 68 69 69 69 69 69 69 70 69 69 69 68 68 68 68 68 67 68 67 67 66 67 66 66 65 65 64 62 62 62
21 23 24 22 15 16 18 16 15 14 17 14 15 16 55 56 58 58 58 54 55 57 58 61 62 63 64 64 65 64 64 64 65 65 65 65 64 65 65 65 66 65 67 66 67 67 67 66 67 67 68 68 68 67 68 68 68 68 68 70 69 69 69 70 70 69 70 70 70 69 69 69 69 69 69 69 69 69 68 68 68 68 68 67 67 67 66 66 67 66 66 65 65 65 64 63 63
17 20 19 20 18 19 16 13 13 13 12 12 12 12 46 55 58 59 59 59 60 61 61 63 63 64 64 65 65 64 64 64 65 65 65 64 64 64 65 65 64 64 64 65 66 66 67 68 67 68 67 67 68 68 68 68 68 68 68 69 68 69 70 69 69 70 69 69 69 69 70 69 68 68 69 68 69 68 68 67 67 68 68 67 67 66 67 67 67 67 66 66 67 65 65 64 64
20 18 18 17 14 15 16 14 14 13 13 13 12 27 34 57 57 60 60 61 61 62 63 64 64 65 65 64 64 64 64 64 65 65 65 65 65 64 65 65 64 64 64 65 65 66 67 67 67 68 67 67 68 68 68 68 69 68 68 69 69 69 69 69 70 69 69 69 69 69 69 69 67 67 68 69 69 69 68 69 68 67 66 66 67 66 65 65 66 66 67 64 63 63 63 65 64
20 19 16 17 15 15 15 14 13 13 13 13 40 23 14 55 58 60 61 61 62 63 63 64 64 64 64 64 64 64 64 65 65 65 65 65 65 65 65 64 65 64 63 64 65 65 67 67 67 67 68 67 68 68 67 68 68 68 69 69 68 69 68 69 69 68 68 68 68 68 68 69 68 68 68 68 68 68 68 68 69 69 68 67 67 66 66 65 65 64 65 64 63 63 63 64 65
16 19 17 16 16 17 15 13 13 12 24 58 56 57 58 59 59 59 60 62 63 63 63 63 64 63 63 63 64 64 64 64 64 64 64 65 65 64 64 64 64 63 64 65 65 66 67 67 68 68 68 68 68 67 67 67 68 68 68 68 68 69 69 68 68 68 68 68 68 68 68 68 68 68 68 68 68 68 69 68 69 68 69 68 68 67 66 66 65 64 64 64 61 62 61 63 64
18 17 16 14 12 11 11 10 13 14 46 58 56 56 56 57 57 57 62 63 63 63 62 63 62 62 62 63 63 64 63 63 64 64 64 65 64 64 64 64 63 64 65 65 65 66 67 67 68 68 69 68 68 67 67 67 68 68 68 68 68 68 69 69 69 68 68 68 68 68 68 68 68 68 68 68 69 69 69 69 69 68 69 69 68 67 68 66 66 65 66 64 64 63 62 63 63
14 10 10 9 9 9 9 10 11 11 12 58 54 51 54 57 58 58 61 64 63 62 62 62 62 62 62 63 63 63 63 64 64 64 64 64 63 63 64 63 64 65 65 66 66 68 68 68 68 68 69 69 68 67 68 68 68 68 68 68 68 69 69 68 68 68 68 68 68 68 68 68 68 68 68 68 68 68 68 68 69 68 69 68 68 68 68 67 67 67 67 67 68 67 65 64 65
9 9 9 9 9 9 10 8 9 13 22 55 54 53 53 55 56 59 61 63 63 62 62 61 61 62 62 62 63 63 64 64 64 63 63 63 63 64 64 65 65 65 65 67 67 68 68 68 68 68 69 69 68 68 68 68 68 68 68 68 68 68 68 68 68 68 68 68 68 68 68 68 68 68 68 68 68 68 68 68 68 68 68 68 68 67 67 68 67 67 68 67 67 67 67 65 65
9 7 7 7 7 7 9 10 11 11 35 54 49 42 49 53 56 59 62 62 63 62 61 61 61 62 62 62 63 63 63 63 63 63 63 64 64 64 65 66 66 66 66 67 68 67 68 68 69 69 69 68 68 68 68 68 68 68 68 68 69 68 68 68 68 68 68 68 68 68 68 68 68 68 68 69 69 69 68 68 67 68 68 68 68 68 68 67 66 66 65 66 66 66 65 65 65
11 9 9 11 7 6 8 12 10 12 30 51 29 40 48 54 56 59 60 62 61 60 61 61 61 61 61 62 62 62 62 63 63 64 64 65 65 65 66 66 67 67 67 67 67 68 68 68 69 68 69 68 68 68 68 68 68 68 67 68 68 68 68 67 68 68 68 68 68 68 69 68 68 68 68 69 68 68 67 68 67 68 67 68 68 68 67 67 67 66 65 64 67 66 65 65 65
13 9 9 8 8 6 8 16 12 22 44 36 32 39 49 54 58 59 59 61 61 60 61 60 61 61 61 62 62 62 62 63 64 64 64 65 65 66 66 66 67 67 67 67 68 68 68 68 68 68 68 68 68 68 68 68 68 68 68 68 68 69 68 69 69 68 68 68 68 68 68 68 68 68 69 69 69 68 68 67 68 68 68 67 67 67 67 66 66 66 66 65 65 65 65 65 65
11 10 17 10 7 6 5 8 14 20 41 38 32 30 50 53 58 58 59 59 61 60 60 60 60 61 61 62 61 62 62 63 64 64 64 65 66 66 66 66 67 67 68 68 67 67 68 68 68 68 68 67 68 68 69 68 68 68 68 69 68 68 68 68 68 68 67 67 67 67 67 68 67 68 68 68 69 68 68 67 68 68 68 67 67 67 66 66 66 66 66 66 66 65 64 64 65
11 12 12 14 6 6 5 9 12 33 42 40 48 47 51 53 58 58 59 59 58 59 60 59 60 60 61 61 61 61 62 62 63 64 64 65 66 66 67 67 67 67 67 67 67 67 67 67 68 68 67 68 68 68 68 68 68 68 67 67 67 66 66 67 67 67 67 67 67 66 66 67 67 67 67 67 68 68 68 68 68 68 68 68 67 67 67 66 66 66 66 66 65 65 64 65 66
14 14 14 9 12 12 6 7 23 38 39 40 46 48 51 53 58 58 58 59 58 57 57 58 59 60 60 60 60 61 61 61 63 64 65 65 66 66 67 67 67 67 67 67 67 67 67 67 67 67 67 67 67 67 68 68 68 68 67 67 67 67 67 67 67 66 66 67 67 66 66 67 67 66 67 67 68 68 68 68 68 68 67 68 66 66 66 66 67 66 65 65 66 65 65 65 66
9 11 11 13 9 8 7 16 38 42 41 43 42 45 50 54 56 57 58 58 56 55 56 58 58 58 60 60 60 60 61 62 64 64 65 65 65 65 65 65 65 65 66 66 66 66 66 67 67 67 67 67 67 67 67 67 66 66 66 67 66 66 66 66 66 66 66 66 66 66 66 66 66 66 66 67 67 67 67 68 67 67 68 67 66 66 66 66 66 65 65 65 65 65 65 65 65
13 13 11 10 8 8 10 26 40 44 45 46 47 51 51 54 55 56 56 56 55 55 56 56 57 57 58 59 60 60 61 61 62 63 63 64 64 64 64 64 64 65 65 66 65 66 66 66 66 66 67 67 67 66 67 67 67 67 66 65 65 65 65 65 65 65 65 66 65 65 65 66 65 66 66 66 66 66 67 67 67 66 67 67 66 66 67 67 66 66 66 66 65 64 64 65 65
9 9 7 8 8 14 34 42 47 45 48 47 51 51 51 52 54 53 54 55 55 55 54 56 56 56 57 57 57 58 59 61 62 62 62 62 62 63 63 63 64 63 63 64 64 64 65 65 65 66 66 67 67 67 66 67 66 66 65 64 64 64 64 64 64 65 65 65 65 65 65 65 65 65 65 66 66 66 66 65 66 66 66 66 66 66 66 66 66 66 65 65 65 65 64 64 65
12 9 11 8 8 13 35 48 48 48 48 49 50 50 50 51 52 52 52 53 53 54 54 55 55 55 56 56 56 57 58 58 60 60 60 61 61 61 62 62 62 62 63 63 63 63 64 64 65 65 65 66 66 67 66 66 66 66 65 65 64 63 64 64 64 64 65 64 64 64 64 65 64 64 65 65 65 65 65 65 65 65 66 66 66 66 66 65 66 65 65 64 63 64 64 64 65
13 12 11 8 10 9 27 47 49 47 49 48 49 48 49 51 52 52 52 53 53 55 55 56 56 55 54 55 56 56 56 56 57 59 59 60 61 60 60 61 61 61 61 61 62 62 62 63 64 64 64 65 65 66 65 66 66 66 65 65 64 64 63 63 63 63 63 63 63 63 63 63 63 63 64 64 64 64 65 65 65 65 65 66 66 66 65 64 65 65 65 64 64 62 63 63 64
18 12 9 8 9 12 31 46 49 49 49 48 48 48 48 50 48 50 52 53 52 53 54 55 55 56 57 57 57 58 57 57 57 58 58 59 59 59 59 60 60 60 61 60 61 61 61 61 62 62 62 63 64 65 65 65 65 64 64 63 63 63 63 63 62 61 62 62 62 62 62 61 61 61 62 62 63 64 64 64 64 65 65 66 66 66 65 64 65 65 64 64 64 63 62 63 63
12 17 8 9 28 45 47 48 45 45 46 46 44 42 43 49 49 49 52 52 51 52 53 53 55 55 56 56 57 58 58 58 58 58 58 58 58 59 59 59 59 59 59 59 60 60 60 60 61 61 61 62 62 63 64 64 64 63 63 62 61 61 60 60 59 59 60 60 60 61 61 58 58 59 59 60 61 62 62 63 64 64 64 65 65 66 65 66 65 65 65 64 64 64 62 63 63
14 10 11 28 42 46 46 42 32 39 40 43 47 29 38 48 48 50 51 51 51 51 52 53 54 55 55 56 56 57 57 57 57 57 58 58 58 58 58 58 58 58 58 59 59 59 59 59 60 60 60 61 61 62 62 62 63 62 62 61 60 60 59 59 60 61 60 60 60 60 60 59 56 57 58 58 59 59 59 60 60 61 62 63 64 64 64 64 64 64 65 65 64 65 64 61 61
9 10 16 44 43 42 42 33 26 38 46 47 45 39 39 38 46 49 50 51 50 50 51 52 54 54 55 55 56 56 56 56 56 57 56 57 57 57 57 57 57 57 58 58 58 59 59 59 59 59 59 59 60 60 60 61 61 60 60 59 58 58 58 58 58 58 59 59 58 58 58 58 57 55 56 56 56 57 57 56 57 57 57 58 60 60 60 61 62 63 65 65 65 64 63 62 62
8 14 38 36 35 40 40 32 37 42 42 41 42 42 39 41 45 48 49 48 50 50 50 52 53 53 54 54 55 55 55 55 55 55 55 56 55 56 57 57 57 57 57 57 57 57 58 58 58 58 57 58 58 59 59 58 58 58 58 58 57 56 56 56 55 56 55 56 56 56 56 56 56 55 54 54 55 53 53 53 54 54 54 55 55 55 56 57 58 59 60 61 62 63 64 64 63
9 17 21 29 37 38 35 31 33 36 27 35 40 41 30 38 46 47 47 47 48 50 51 52 53 53 53 54 54 54 54 55 56 55 55 56 56 56 56 55 55 56 56 56 56 56 56 56 56 56 56 56 56 57 57 57 57 57 56 56 56 55 54 54 54 53 53 53 53 53 53 52 52 53 54 53 53 51 51 51 51 52 52 53 54 53 52 53 55 56 57 59 60 60 61 62 62
12 12 16 19 25 31 29 35 36 31 22 27 39 40 28 30 44 44 46 46 47 48 51 52 53 54 53 54 54 54 54 54 53 54 55 55 56 55 55 54 54 56 56 56 56 55 55 55 55 55 55 55 56 56 56 55 55 55 55 55 54 54 53 53 52 52 51 52 51 51 51 51 52 52 52 52 51 51 51 50 50 49 50 50 50 50 50 50 53 55 56 57 57 58 58 58 59
10 9 10 12 18 25 28 27 28 20 17 25 39 39 37 21 38 44 46 48 48 48 50 51 52 52 53 53 53 53 54 54 53 53 53 54 53 54 54 53 54 55 55 55 55 55 55 55 54 54 54 54 54 54 54 54 54 54 54 53 53 52 52 51 51 50 49 49 50 49 50 50 50 50 51 51 50 50 50 49 49 49 48 49 48 48 48 48 49 52 53 54 55 56 55 55 56
9 9 10 10 10 20 11 18 16 17 14 23 29 40 34 28 37 45 45 47 48 49 50 51 51 51 52 52 53 53 53 54 53 52 52 53 53 52 53 53 54 54 54 55 55 55 54 54 54 53 53 53 53 53 53 53 53 53 52 52 52 51 51 50 49 48 49 48 48 49 49 48 49 49 49 50 49 48 48 48 47 46 46 47 47 46 47 47 48 50 51 51 51 52 52 53 54
8 9 13 9 7 7 8 11 16 18 21 25 28 39 33 35 36 44 46 48 48 49 50 52 51 51 51 51 52 52 52 53 52 53 53 53 52 52 52 52 52 53 53 54 54 54 54 53 53 52 52 52 52 52 52 52 52 52 52 51 50 50 49 49 48 47 47 47 47 47 47 47 47 48 48 49 49 47 46 46 47 46 46 46 46 46 47 46 47 47 48 49 49 49 50 51 51
7 10 8 12 11 6 8 8 9 12 19 31 36 33 31 28 41 45 44 45 48 49 50 51 52 51 52 51 51 51 51 51 51 52 52 52 52 52 52 52 52 52 53 53 53 52 52 52 52 51 51 51 51 51 51 50 49 50 50 50 49 49 48 47 47 47 48 46 46 46 46 46 46 47 47 47 46 46 46 46 46 45 45 45 45 45 46 46 46 47 46 47 47 46 47 48 48
7 9 8 12 11 21 5 16 15 21 25 28 35 33 39 39 46 47 48 48 50 50 50 51 51 51 51 51 50 51 51 51 51 51 51 52 52 51 51 51 52 52 52 53 52 52 53 52 52 51 50 50 50 50 49 49 49 49 49 49 49 49 48 47 47 47 47 47 46 45 46 46 46 46 47 46 46 45 45 45 45 45 44 45 45 44 44 44 44 45 44 45 45 45 45 46 46
11 7 9 10 18 21 22 21 26 25 17 14 36 37 38 43 43 46 49 50 49 50 50 50 50 50 51 50 50 50 51 50 50 50 51 51 50 51 51 51 51 52 51 52 52 52 52 51 51 50 50 49 50 50 49 49 49 49 48 48 48 48 47 47 46 47 47 46 46 45 45 45 46 46 45 45 45 44 44 44 44 44 44 44 44 44 43 43 44 44 44 44 44 44 45 45 45
9 9 10 16 18 19 21 10 17 17 11 20 33 35 37 32 34 45 47 49 49 49 49 49 50 50 50 50 50 50 50 50 50 50 50 50 49 49 50 51 52 52 51 51 51 51 51 51 50 49 49 49 49 49 49 49 49 48 48 48 48 47 47 46 46 45 46 45 45 44 44 44 45 45 44 45 44 44 43 43 42 42 43 43 43 43 43 43 43 42 44 43 43 44 44 44 45
10 11 11 8 11 10 21 19 14 14 14 19 32 33 35 35 40 44 46 48 48 49 49 48 48 49 49 49 50 50 50 50 50 49 49 48 48 49 50 50 50 51 52 51 49 49 49 49 49 49 49 49 50 49 49 49 49 48 48 48 48 47 47 47 46 45 45 44 43 43 43 43 44 44 44 43 42 42 42 42 42 41 41 42 42 42 42 42 42 42 42 42 43 43 43 44 44
12 12 9 14 16 21 12 14 20 17 11 22 31 32 32 37 39 44 46 47 49 49 48 48 49 49 49 49 49 49 49 49 49 48 47 47 48 49 49 50 49 49 49 49 49 49 49 49 49 48 49 48 49 49 49 48 48 47 48 48 48 47 47 47 46 46 45 44 43 43 42 43 43 43 43 43 42 41 41 41 40 40 40 41 40 41 41 41 41 41 41 41 42 42 42 43 43
9 11 11 12 22 14 16 23 12 14 20 18 21 25 30 37 39 44 46 47 48 49 48 48 49 49 49 49 49 49 49 48 48 47 46 47 48 49 49 50 49 49 48 49 49 48 48 48 48 48 48 48 48 48 47 47 47 47 48 47 47 47 46 44 45 44 44 43 43 43 43 43 43 42 42 42 42 41 40 40 39 39 39 40 40 40 40 41 40 41 41 41 41 40 41 41 42
9 11 12 9 15 11 6 10 21 24 19 21 17 14 28 38 44 45 46 47 48 48 48 48 48 48 49 49 49 48 48 47 46 46 46 46 47 48 49 48 48 47 47 47 47 47 47 47 47 47 47 46 46 46 46 46 46 46 46 46 45 45 43 44 44 44 44 42 43 43 43 42 43 42 42 40 40 41 40 40 39 38 39 38 38 39 40 40 40 40 40 41 41 40 40 40 41